Hyannis, MA

5:42 AM EDT on August 27, 2016 (GMT -0400)
Barnstable Municipal-Boardman-Polando Field

Weather History for KHYA - January, 2014

Change the Weather History Date:

Saturday, January 25, 2014

  Actual Average Record
Temperature  
Mean Temperature 23 °F -  
Max Temperature 39 °F 41 °F 58 °F (1967)
Min Temperature 7 °F 23 °F -4 °F (1935)
Degree Days  
Heating Degree Days 42    
Moisture  
Dew Point 24 °F    
Average Humidity 75    
Maximum Humidity 92    
Minimum Humidity 64    
Precipitation  
Precipitation 0.02 in - - ()
Sea Level Pressure  
Sea Level Pressure 29.69 in    
Wind  
Wind Speed 13 mph (SW)    
Max Wind Speed 29 mph    
Max Gust Speed 37 mph    
Visibility 8 miles    
Events Rain , Snow    
Averages and records for this station are not official NWS values.
T = Trace of Precipitation, MM = Missing Value Source: NWS Daily Summary

Daily Weather History Graph

Daily Weather History Graph

Search for Another Location

Airport or City:

Trip Planner

Search our weather history database for the weather conditions in past years. The results will help you decide how hot, cold, wet, or windy it might be!

Date:

Astronomy

Jan. 25, 2014 Rise Set
Actual Time 6:59 AM EST 4:47 PM EST
Civil Twilight 6:29 AM EST 5:17 PM EST
Nautical Twilight 5:55 AM EST 5:51 PM EST
Astronomical Twilight 5:23 AM EST 6:24 PM EST
Moon 1:27 AM EST (1/25) 11:46 AM EST (1/25)
Length of Visible Light 10h 48m
Length of Day
9h 48m
Waning Crescent, 34% of the Moon is Illuminated
Jan 25
Waning Crescent
Jan 30
New
Feb 6
First Quarter
Feb 14
Full
Feb 22
Last Quarter

Hourly Weather History & Observations

Time (EST) Temp. Windchill Dew Point Humidity Pressure Visibility Wind Dir Wind Speed Gust Speed Precip Events Conditions
12:56 AM 7.0 °F - -0.0 °F 73% 30.07 in 10.0 mi Calm Calm - N/A   Mostly Cloudy
1:41 AM 9.0 °F 2.4 °F 1.0 °F 70% 30.04 in 9.0 mi Variable 3.5 mph - N/A   Overcast
1:56 AM 21.0 °F 9.3 °F 14.0 °F 74% 30.04 in 10.0 mi WSW 11.5 mph - N/A   Overcast
2:11 AM 21.9 °F 8.7 °F 15.1 °F 75% 30.03 in 5.0 mi WSW 15.0 mph - 0.00 in Snow Light Snow
2:21 AM 21.9 °F 8.7 °F 15.1 °F 75% 30.02 in 7.0 mi WSW 15.0 mph 24.2 mph 0.00 in Snow Light Snow
2:56 AM 23.0 °F 10.6 °F 15.1 °F 72% 30.02 in 8.0 mi SW 13.8 mph - 0.00 in Snow Light Snow
3:56 AM 24.1 °F 11.5 °F 17.1 °F 75% 29.99 in 9.0 mi SW 15.0 mph 24.2 mph 0.00 in   Overcast
4:56 AM 28.0 °F 15.3 °F 18.0 °F 66% 29.94 in 10.0 mi SW 18.4 mph 25.3 mph N/A   Overcast
5:56 AM 30.0 °F 19.5 °F 19.9 °F 66% 29.91 in 10.0 mi SSW 13.8 mph 27.6 mph N/A   Overcast
6:56 AM 32.0 °F 20.8 °F 23.0 °F 69% 29.89 in 10.0 mi SSW 17.3 mph 25.3 mph 0.00 in   Overcast
7:16 AM 33.1 °F 21.2 °F 21.9 °F 64% 29.87 in 10.0 mi SSW 20.7 mph 32.2 mph N/A   Overcast
7:56 AM 34.0 °F 22.7 °F 24.1 °F 67% 29.86 in 10.0 mi South 19.6 mph 29.9 mph N/A   Overcast
8:34 AM 34.0 °F 23.4 °F 27.0 °F 75% 29.82 in 7.0 mi SSW 17.3 mph 26.5 mph 0.00 in Snow Light Snow
8:46 AM 35.1 °F 23.8 °F 27.0 °F 72% 29.82 in 5.0 mi SSW 20.7 mph 29.9 mph 0.00 in Snow Light Snow
8:56 AM 36.0 °F 25.6 °F 27.0 °F 70% 29.82 in 10.0 mi SSW 18.4 mph 36.8 mph 0.00 in   Overcast
9:56 AM 36.0 °F 26.7 °F 28.9 °F 76% 29.79 in 10.0 mi South 15.0 mph 25.3 mph N/A   Overcast
10:56 AM 37.9 °F 27.9 °F 30.0 °F 73% 29.74 in 9.0 mi SSW 19.6 mph 28.8 mph 0.00 in Snow Light Snow
11:56 AM 39.0 °F 29.9 °F 30.0 °F 70% 29.68 in 10.0 mi SSW 17.3 mph 27.6 mph 0.00 in   Overcast
12:56 PM 39.9 °F 31.1 °F 30.9 °F 70% 29.61 in 10.0 mi SSW 17.3 mph 29.9 mph N/A   Overcast
1:56 PM 39.9 °F 30.5 °F 30.9 °F 70% 29.57 in 10.0 mi SSW 19.6 mph 31.1 mph N/A   Overcast
2:56 PM 39.9 °F 30.8 °F 28.9 °F 65% 29.53 in 10.0 mi SSW 18.4 mph 28.8 mph N/A   Mostly Cloudy
3:56 PM 39.0 °F 30.6 °F 30.0 °F 70% 29.49 in 10.0 mi SSW 15.0 mph 26.5 mph N/A   Partly Cloudy
4:56 PM 39.0 °F 31.4 °F 30.9 °F 73% 29.45 in 10.0 mi SSW 12.7 mph - N/A   Partly Cloudy
5:56 PM 39.0 °F 31.4 °F 30.9 °F 73% 29.42 in 10.0 mi SSW 12.7 mph - N/A   Overcast
6:56 PM 39.9 °F 30.2 °F 28.9 °F 65% 29.38 in 10.0 mi SSW 20.7 mph 33.4 mph 0.00 in   Overcast
7:22 PM 37.9 °F 25.9 °F 30.9 °F 76% 29.36 in 8.0 mi SW 28.8 mph 36.8 mph 0.00 in Rain Light Rain
7:43 PM 34.0 °F 25.5 °F 32.0 °F 92% 29.37 in 2.5 mi SW 11.5 mph 23.0 mph 0.01 in Snow Light Snow
7:56 PM 34.0 °F 24.6 °F 32.0 °F 92% 29.37 in 1.8 mi WSW 13.8 mph - 0.01 in Snow Light Snow
8:56 PM 32.0 °F 20.1 °F 30.0 °F 92% 29.35 in 1.0 mi West 19.6 mph 27.6 mph 0.01 in Snow Light Snow
9:48 PM 30.0 °F 18.3 °F 27.0 °F 88% 29.34 in 3.0 mi WSW 17.3 mph 25.3 mph 0.00 in Snow Light Snow
9:56 PM 30.0 °F 17.5 °F 27.0 °F 88% 29.34 in 5.0 mi WSW 19.6 mph 27.6 mph 0.00 in Snow Light Snow
10:56 PM 28.9 °F 17.3 °F 25.0 °F 85% 29.36 in 10.0 mi West 16.1 mph 21.9 mph 0.00 in   Mostly Cloudy
11:56 PM 28.9 °F 18.2 °F 24.1 °F 82% 29.35 in 10.0 mi WSW 13.8 mph - N/A   Mostly Cloudy